Regional Weather Roundup
Issued by NWS

Home | Current Version | Previous Version | Text Only | Print | Product List | Glossary Off
Versions: 1 2 3 4 5 6 7 8 9 10 11 12 13 14 15 16 17 18 19 20 21 22 23 24 25 26 27 28 29 30 31 32 33 34 35 36 37 38 39 40 41 42 43 44 45 46 47 48 49 50

000
ASUS43 KFSD 270210
RWRSD

WEATHER ROUNDUP FOR SOUTH DAKOTA
NATIONAL WEATHER SERVICE SIOUX FALLS SD
900 PM CDT SUN MAR 26 2017

NOTE: "FAIR" INDICATES FEW OR NO CLOUDS BELOW 12,000 FEET WITH NO
SIGNIFICANT WEATHER AND/OR OBSTRUCTIONS TO VISIBILITY.


SDZ001>005-009-010-012>017-270300-
NORTHWEST AND NORTH CENTRAL SOUTH DAKOTA

CITY           SKY/WX    TMP DP  RH WIND       PRES   REMARKS
BUFFALO          N/A     46  37  71 S10       29.84R
FAITH            N/A     44  39  82 MISG      29.91F
MOBRIDGE       CLOUDY    48  37  65 E6        29.89S
$$

SDZ012>016-024>037-041>051-057-063-072>074-270300-
SOUTHWEST AND SOUTH CENTRAL SOUTH DAKOTA

CITY           SKY/WX    TMP DP  RH WIND       PRES   REMARKS
RAPID CTY ARPT CLOUDY    42  39  89 CALM      29.93S
PIERRE         CLOUDY    41  37  86 W6        29.92S
CUSTER         CLOUDY    36  34  92 NW5       29.93R
ELLSWORTH AFB  MOCLDY    43  43 100 CALM      29.92S
PHILIP         CLOUDY    42  38  85 NW5       29.94R
PINE RIDGE     MOCLDY    44  39  82 N7        29.94R
SPEARFISH      MOCLDY    41  37  87 S10       29.93S
WINNER         FAIR      42  35  76 N6        29.95R
$$

SDZ004>011-016>023-039-040-270300-
NORTHEAST SOUTH DAKOTA

CITY           SKY/WX    TMP DP  RH WIND       PRES   REMARKS
ABERDEEN       CLOUDY    40  34  79 E3        29.94S
WATERTOWN      MOCLDY    39  35  86 CALM      29.92S
BROOKINGS      CLOUDY    39  37  92 SE3       29.94R
SISSETON         N/A     40  38  93 CALM      29.94R
$$

SDZ017-020-022-023-036>040-048>070-270300-
SOUTHEAST SOUTH DAKOTA

CITY           SKY/WX    TMP DP  RH WIND       PRES   REMARKS
SIOUX FALLS    CLOUDY    44  39  82 CALM      29.96R
HURON          PTCLDY    41  37  86 CALM      29.94R
CHAMBERLAIN    CLEAR     38  37  96 E3        29.95R
MITCHELL       CLOUDY    44  38  79 W5        29.96R
YANKTON        CLOUDY    46  39  76 SE3       29.97R
$$

ABBREVIATIONS USED IN REMARKS
   TC - TEMPERATURE IN CELSIUS
  WCI - WIND CHILL INDEX
   HX - HEAT INDEX
  VSB - VISIBILITY




USA.gov is the U.S. government's official web portal to all federal, state and local government web resources and services.